Regional Weather Roundup
Issued by NWS

Home | Current Version | Previous Version | Text Only | Print | Product List | Glossary On
Versions: 1 2 3 4 5 6 7 8 9 10 11 12 13 14 15 16 17 18 19 20 21 22 23 24 25 26 27 28 29 30 31 32 33 34 35 36 37 38 39 40 41 42 43 44 45 46 47 48 49 50
075
ASUS43 KMPX 171310
RWRMN
WEATHER ROUNDUP FOR MINNESOTA
NATIONAL WEATHER SERVICE TWIN CITIES/CHANHASSEN MN
700 AM CST WED JAN 17 2018


NOTE: "FAIR" INDICATES FEW OR NO CLOUDS BELOW 12,000 FEET WITH NO
SIGNIFICANT WEATHER AND/OR OBSTRUCTIONS TO VISIBILITY. N/A MEANS
CURRENT SKY AND/OR WEATHER CONDITIONS ARE NOT AVAILABLE.

MNZ060>063-068>070-171400-
   Twin Cities Metro

CITY           SKY/WX    TMP DP  RH WIND       PRES   REMARKS
TWIN CITIES    FAIR       4  -1  80 S6        30.36F WCI  -7
ST PAUL        FAIR      -2  -5  87 S8        30.39F WCI -17
CRYSTAL        FAIR       4  -5  66 SW8       30.34F WCI  -9
BLAINE         FAIR       5  -2  72 SW10      30.33F WCI -10
LAKEVILLE      FAIR       5   0  78 SW5       30.35F WCI  -4
EDEN PRAIRIE   FAIR       3  -4  72 SW10      30.35F WCI -12
SOUTH ST PAUL  FAIR      -1  -6  79 SE5       30.37F WCI -11
LAKE ELMO      FAIR       0  -4  85 S8        30.36F WCI -15
$$
MNZ001>005-007-008-013>017-022>024-027-028-171400-
   Northwest Minnesota

CITY           SKY/WX    TMP DP  RH WIND       PRES   REMARKS
BEMIDJI        FAIR      12  -1  56 SW10      30.04F WCI  -1
HALLOCK        FAIR       5   0  78 S24       29.97F WCI -17
ROSEAU         FAIR       9   1  72 SW15      29.95F WCI  -8
WARROAD        FAIR       9   1  72 SW17G24   29.93F WCI -10
THIEF RVR FALL FLURRIES   5  -1  76 SW21G26   30.03F WCI -16
CROOKSTON      FAIR       7   0  72 S21       30.09F WCI -13
FOSSTON        FAIR       3  -2  78 S20       30.06F WCI -18
DETROIT LAKES  FAIR       9   0  66 S9        30.13F WCI  -5
MOORHEAD       FAIR       3  -4  72 S13       30.16F WCI -14
PARK RAPIDS    FAIR       6  -2  69 SW8       30.10F WCI  -7
MAHNOMEN       FAIR       5  -2  72 S15       30.09F WCI -13
$$
MNZ006-009>011-018-025>026-171400-
   North Central Minnesota

CITY           SKY/WX    TMP DP  RH WIND       PRES   REMARKS
BAUDETTE       FAIR      11   1  64 SW10      29.94F WCI  -3
FLAG ISLAND    FAIR       7   0  72 S12       29.89F WCI  -9
INTL FALLS     FAIR      12  -1  56 SW8       29.95F WCI   0
WASKISH        FAIR      12   3  67 SW6       29.99F WCI   3
BIG FORK       FAIR      10   0  61 SW14G22   30.02F WCI  -5
LONGVILLE      FAIR       7  -2  66 S8        30.12F WCI  -6
GRAND RAPIDS   FAIR       7  -2  66 S6        30.11F WCI  -3
CRANE LAKE     FAIR       9  -2  61 S8        30.01F WCI  -4
ORR            FAIR       9  -2  61 S8        29.98F WCI  -4
COOK           FAIR      10   0  61 SW8       30.03F WCI  -1
WALKER         FAIR       8  -3  61 SW10      30.08F WCI  -6
$$
MNZ012-019>021-037-171400-
   Northeast Minnesota

CITY           SKY/WX    TMP DP  RH WIND       PRES   REMARKS
DULUTH         FAIR       3  -3  76 W15       30.11F WCI -16
ELY            FAIR       5  -2  72 SW10G16   30.02F WCI -10
HIBBING        FAIR       4  -2  76 VRB7      30.08F WCI  -8
EVELETH        FAIR       4  -4  68 SW12      30.09F WCI -12
DULUTH HARBOR  FAIR       7   0  72 SW14      30.21F WCI -10
TWO HARBORS    FAIR      10   0  61 SW10      30.11F WCI  -3
SILVER BAY     FAIR      10   1  67 SW6       30.07F WCI   1
GRAND MARAIS     N/A     18   6  59 W14G21    30.07F WCI   4
G MARAIS ARPRT FAIR      10  -2  56 SW6       29.96F WCI   1
$$
MNZ029>031-032-039>041-046>048-054>057-064-171400-
   West Central Minnesota

CITY           SKY/WX    TMP DP  RH WIND       PRES   REMARKS
FERGUS FALLS   FAIR       1  -4  78 S9        30.23F WCI -14
WHEATON        CLOUDY     7  -2  66 S10       30.22F WCI  -8
MORRIS         CLOUDY     1  -4  78 SE9       30.22F WCI -14
ALEXANDRIA     FAIR       4  -2  76 SW14      30.19F WCI -14
ELBOW LAKE     FAIR       3  -3  77 SE10      30.20F WCI -12
WADENA         FAIR       3  -2  78 SW5       30.14F WCI  -6
GLENWOOD       FAIR       1  -4  78 S9        30.23F WCI -14
APPLETON       CLOUDY     9   0  66 S7        30.25F WCI  -3
BENSON         CLOUDY     3  -2  78 S8        30.27F WCI -10
ORTONVILLE     CLOUDY     3   0  85 S8        30.23F WCI -10
MADISON        CLOUDY     9   1  72 S6        30.26F WCI  -1
WILLMAR        FAIR       0  -6  78 S5        30.30F WCI -10
$$
MNZ033>034-036-042>043-049>051-058-059-171400-
   Central Minnesota

CITY           SKY/WX    TMP DP  RH WIND       PRES   REMARKS
ST CLOUD       FAIR       2  -3  80 S8        30.27F WCI -12
SAUK CENTRE      N/A      2  -3  77 S9        30.23F WCI -12
PAYNESVILLE    FAIR       4  -1  79 S8        30.26F WCI -10
AITKIN         FAIR       5  -2  72 S9        30.16F WCI  -9
PINE RIVER     FAIR       5  -2  72 S6        30.17F WCI  -6
BRAINERD       FAIR       5  -3  69 S12       30.18F WCI -11
STAPLES        FAIR       3  -2  78 S7        30.16F WCI  -9
LONG PRAIRIE   FAIR       3  -4  72 S9        30.20F WCI -11
LITTLE FALLS   FAIR       3  -8  60 S6        30.23F WCI  -8
LITCHFIELD     FAIR       3   0  85 S5        30.29F WCI  -6
BUFFALO        FAIR       1  -4  77 S7        30.33F WCI -11
MAPLE LAKE     FAIR       4  -1  79 MISG      30.31F
HUTCHINSON     FAIR       3  -2  78 S5        30.32F WCI  -6
$$
MNZ037-044-045-052-053-171400-
   East Central Minnesota

CITY           SKY/WX    TMP DP  RH WIND       PRES   REMARKS
PRINCETON      FAIR       3  -2  78 S9        30.28F WCI -11
MORA           FAIR       3  -2  78 SW8       30.28F WCI -10
CAMBRIDGE      FAIR       3  -6  66 S7        30.30F WCI  -9
RUSH CITY      FAIR       2  -4  75 SW7       30.29F WCI -10
MOOSE LAKE     FAIR       3  -4  72 SW10      30.20F WCI -12
HINCKLEY       FAIR       3   0  85 SW10      30.26F WCI -12
CLOQUET        FAIR       1  -6  71 SW8       30.15F WCI -12
MCGREGOR       FAIR       9   0  66 SW7       30.18F WCI  -3
$$
MNZ071>073-080-081-089-090-097-098-171400-
   Southwest Minnesota

CITY           SKY/WX    TMP DP  RH WIND       PRES   REMARKS
MONTEVIDEO     CLOUDY     7   0  72 SW7       30.28F WCI  -5
GRANITE FALLS  CLOUDY     6   0  77 S8        30.31F WCI  -7
CANBY          CLOUDY    12   2  64 SW13G18   30.26F WCI  -2
MARSHALL       CLOUDY    12   1  61 SW14G22   30.29F WCI  -3
REDWOOD FALLS  CLOUDY     5  -1  76 S9        30.32F WCI  -9
OLIVIA         CLOUDY     7   1  78 S8        30.30F WCI  -6
PIPESTONE      CLOUDY     3  -2  78 SW10      30.30F WCI -12
WINDOM         CLOUDY     9  -8  47 SW20      30.33F WCI -11
WORTHINGTON    CLOUDY     7   0  73 SW22G29   30.32F WCI -14
JACKSON        CLOUDY     9   1  72 SW18G24   30.35F WCI -10
SLAYTON        CLOUDY     6   0  75 SW18      30.30F WCI -14
$$
MNZ065>067-074>077-082>085-091>093-171400-
   South Central Minnesota

CITY           SKY/WX    TMP DP  RH WIND       PRES   REMARKS
MANKATO        FAIR       1  -4  79 S9        30.38F WCI -14
NEW ULM        CLOUDY     5  -2  72 S8        30.35F WCI  -8
ST JAMES       CLOUDY     9   1  72 S8        30.37F WCI  -4
FAIRMONT       CLOUDY     8   1  73 SW17      30.38F WCI -10
GLENCOE        FAIR       3  -2  78 S8        30.33F WCI -10
FARIBAULT      FAIR       3   0  85 S8        30.38F WCI -10
OWATONNA       FAIR       3  -2  78 SW13      30.39F WCI -14
WASECA         FAIR       5   0  78 S13       30.40F WCI -12
ALBERT LEA     FAIR       3  -2  78 SW9       30.40F WCI -11
$$
MNZ078>079-086>088-094>096-171400-
   Southeast Minnesota

CITY           SKY/WX    TMP DP  RH WIND       PRES   REMARKS
ROCHESTER      FAIR       3  -2  79 SW16      30.39F WCI -16
RED WING       FAIR      -6 -11  77 CALM      30.40F
STANTON        FAIR       5  -2  72 SW12      30.37F WCI -11
DODGE CENTER   FAIR       1  -4  78 SW14      30.37F WCI -17
WINONA         FAIR       0  -4  85 CALM      30.44F
AUSTIN         FAIR      -2  -6  84 SW6       30.41F WCI -14
PRESTON        FAIR       3  -2  79 SW10      30.42S WCI -12
$$
ABBREVIATIONS USED IN REMARKS
   TC - TEMPERATURES IN CELSIUS
  WCI - WIND CHILL INDEX
   HX - HEAT INDEX
  VSB - VISIBILITY
$$




USA.gov is the U.S. government's official web portal to all federal, state and local government web resources and services.